Detroit, MI

8:28 PM EDT on October 18, 2017 (GMT -0400)
Detroit City

Weather History for KDET - April, 2013

Change the Weather History Date:

Thursday, April 25, 2013

  Actual Average Record
Temperature  
Mean Temperature 43 °F -  
Max Temperature 52 °F 60 °F 89 °F (1990)
Min Temperature 34 °F 41 °F 28 °F (1967)
Degree Days  
Heating Degree Days 22    
Moisture  
Dew Point 31 °F    
Average Humidity 64    
Maximum Humidity 82    
Minimum Humidity 39    
Precipitation  
Precipitation 0.04 in - - ()
Sea Level Pressure  
Sea Level Pressure 30.19 in    
Wind  
Wind Speed 9 mph (WSW)    
Max Wind Speed 18 mph    
Max Gust Speed 29 mph    
Visibility 10 miles    
Events Rain    
Averages and records for this station are not official NWS values.
T = Trace of Precipitation, MM = Missing Value Source: NWS Daily Summary

Daily Weather History Graph

Daily Weather History Graph

Search for Another Location

Airport or City:

Trip Planner

Search our weather history database for the weather conditions in past years. The results will help you decide how hot, cold, wet, or windy it might be!

Date:

Astronomy

Apr. 25, 2013 Rise Set
Actual Time 6:35 AM EDT 8:25 PM EDT
Civil Twilight 6:05 AM EDT 8:55 PM EDT
Nautical Twilight 5:28 AM EDT 9:32 PM EDT
Astronomical Twilight 4:49 AM EDT 10:12 PM EDT
Moon 8:37 PM EDT (4/25) 6:17 AM EDT (4/25)
Length of Visible Light 14h 50m
Length of Day
13h 50m
Full, 100% of the Moon is Illuminated
Apr 25
Full
Apr 25
Full
May 2
Last Quarter
May 9
New
May 18
First Quarter

Hourly Weather History & Observations

Time (EDT) Temp. Windchill Dew Point Humidity Pressure Visibility Wind Dir Wind Speed Gust Speed Precip Events Conditions
12:53 AM 37.0 °F 31.6 °F 27.0 °F 67% 30.15 in 10.0 mi WSW 6.9 mph - N/A   Clear
1:53 AM 36.0 °F 30.3 °F 26.1 °F 67% 30.15 in 10.0 mi WSW 6.9 mph - N/A   Clear
2:53 AM 34.0 °F 28.8 °F 27.0 °F 75% 30.15 in 10.0 mi SW 5.8 mph - N/A   Clear
3:53 AM 35.1 °F 27.9 °F 26.1 °F 70% 30.14 in 10.0 mi SW 9.2 mph - N/A   Clear
4:53 AM 34.0 °F 28.0 °F 27.0 °F 75% 30.14 in 10.0 mi SW 6.9 mph - N/A   Clear
5:53 AM 35.1 °F 29.3 °F 28.0 °F 76% 30.15 in 10.0 mi SW 6.9 mph - N/A   Clear
6:53 AM 35.1 °F 28.6 °F 28.9 °F 78% 30.17 in 10.0 mi SW 8.1 mph - N/A   Clear
7:53 AM 37.9 °F 32.1 °F 30.9 °F 76% 30.15 in 10.0 mi SSW 8.1 mph - N/A   Clear
8:53 AM 42.1 °F 35.7 °F 32.0 °F 67% 30.14 in 10.0 mi SSW 11.5 mph - N/A   Clear
9:53 AM 46.0 °F 39.6 °F 34.0 °F 63% 30.14 in 10.0 mi SW 15.0 mph 21.9 mph N/A   Clear
10:53 AM 48.0 °F - 33.1 °F 56% 30.12 in 10.0 mi SSW 17.3 mph 23.0 mph N/A   Mostly Cloudy
11:53 AM 44.1 °F 37.7 °F 36.0 °F 73% 30.15 in 10.0 mi West 12.7 mph 25.3 mph 0.01 in Rain Light Rain
12:31 PM 42.8 °F 36.2 °F 37.4 °F 81% 30.15 in 7.0 mi WSW 12.7 mph 21.9 mph 0.01 in Rain Light Rain
12:53 PM 43.0 °F 35.1 °F 37.9 °F 82% 30.17 in 10.0 mi SW 17.3 mph 21.9 mph 0.02 in   Overcast
1:53 PM 46.0 °F 38.8 °F 37.0 °F 71% 30.17 in 10.0 mi WSW 18.4 mph 26.5 mph 0.00 in   Overcast
2:21 PM 46.4 °F 40.4 °F 37.4 °F 71% 30.14 in 10.0 mi WSW 13.8 mph - 0.00 in Rain Light Rain
2:53 PM 48.9 °F - 37.9 °F 66% 30.17 in 10.0 mi SW 13.8 mph - 0.00 in   Scattered Clouds
3:53 PM 46.9 °F - 37.0 °F 68% 30.17 in 10.0 mi West 11.5 mph - 0.01 in   Overcast
4:53 PM 48.9 °F - 36.0 °F 61% 30.18 in 10.0 mi West 9.2 mph - 0.00 in   Mostly Cloudy
5:53 PM 52.0 °F - 28.0 °F 40% 30.20 in 10.0 mi West 13.8 mph 28.8 mph N/A   Scattered Clouds
6:53 PM 50.0 °F - 26.1 °F 39% 30.24 in 10.0 mi WNW 13.8 mph 20.7 mph N/A   Scattered Clouds
7:53 PM 48.9 °F - 26.1 °F 41% 30.26 in 10.0 mi WNW 9.2 mph 20.7 mph N/A   Clear
8:53 PM 46.9 °F - 27.0 °F 46% 30.29 in 10.0 mi NW 5.8 mph - N/A   Clear
9:53 PM 45.0 °F 43.5 °F 27.0 °F 49% 30.32 in 10.0 mi West 3.5 mph - N/A   Clear
10:53 PM 43.0 °F 39.5 °F 28.0 °F 56% 30.35 in 10.0 mi West 5.8 mph - N/A   Clear
11:53 PM 42.1 °F 39.2 °F 28.0 °F 58% 30.36 in 10.0 mi West 4.6 mph - N/A   Clear